Bedford/Laurence G. Hanscom Field

Airport
ICAO code: 
KBED
IATA Code: 
BED
Summary
ICAO Region: 
NAM
Territory: 
Location: 
Bedford, Massachusetts,
Serving: 
Bedford
Elevation: 
133 ft
Coordinates: 
Aerial View: 
42° 28' 15.092" N, 71° 17' 21.725" W
Airport WX: 
Cumulonimbus
Metar
Observation
KBED 211051Z AUTO 34009KT CLR M13/M20 A3049 RMK AO2 SLP341 T11331200 $
Station
Bedford, Hanscom Field
Date/Time
2022-01-21 10:51:00
Wind direction
340°
Wind speed
09 kts
Lowest cloud amount
n/a
Temperature
-13.3°C
Dew point
-20°C
Humidity
56%
Weather condition
n/a

Description

Laurence G. Hanscom Field, also known by both Hanscom Field and Hanscom Air Force Base, is a public use airport located in Bedford, a town in Middlesex County, Massachusetts.

Climatology

Humid continental climate with a maritime influence (Köppen climate classification Dfa/Cfa) - characterized by four seasons: cold, windy, snowy winters, mild springs, hot, humid summers, and crisp and relatively short autumns. Precipitation reaches its lowest in January and February and peaks in summer and latter half of spring.

Runways

Designator Length Width Surface Rops
5/23 1556 46 ASP Yes/Yes
11/29 2134 46 ASP Yes/Yes
Airport map: 
Aerial View: 

Accidents and Serious Incidents at or in the vicinity of KBED

SKYbrary Partners:

Safety knowledge contributed by: